Location: Ferchesar
(52.6477°N, 12.4298°E)
Time: 04:43:59
(UTC+02:00)

Vanguard 3 - Pass Details

Date: 07 March 2021
Orbit: 508 x 3262 km, 33.3° (Epoch: 15 April)

Event Time Altitude Azimuth Distance (km) Brightness Sun altitude
Rises 15:20:24 0° 238° (WSW) 7,177 13.5 21.0°
Reaches altitude 10° 15:25:48 10° 231° (SW) 6,199 14.0 20.4°
Maximum altitude 15:42:21 37° 175° (S) 3,954 11.2 18.4°
Drops below altitude 10° 15:55:01 10° 116° (ESE) 4,779 10.8 16.9°
Sets 15:58:32 0° 108° (ESE) 5,433 11.0 16.4°
